Location: Courçay
(47.2523°N, 0.8761°E)
Time: 06:27:35
(UTC+00:00)

Cosmos 2369 Rocket - Pass Details

Date: 18 November 2025
Orbit: 826 x 852 km, 71.0° (Epoch: 06 December)

Event Time Altitude Azimuth Distance (km) Brightness Sun altitude
Rises 19:27:38 0° 205° (SSW) 3,357 5.6 -32.0°
Reaches altitude 10° 19:30:03 10° 206° (SSW) 2,431 4.8 -32.4°
Enters shadow 19:32:01 23° 206° (SSW) 1,704 3.9 -32.7°
